User: anonymous
Location: Griffin Ranch
(33.6186°N, 110.6622°W)
Time: 06:41:26
(UTC-07:00)
Language:

Cosmos 1812 - Orbit

View from above orbital plane
View from above orbital plane
View from above satellite
View from above satellite

Ground track
Ground track

The orbit data is extracted from the following two-line orbital elements,

1 17295U 87003A   14243.51204418  .00002076  00000-0  12778-3 0  4001
2 17295 082.5218 066.5130 0004874 053.3411 000.6666 15.09505861504657
Epoch (UTC): 31 August 2014 12:17:20
Eccentricity: 0.0004874
inclination: 82.5218°
perigee height: 534 km
apogee height: 541 km
right ascension of ascending node: 66.5130°
argument of perigee: 53.3411°
revolutions per day: 15.09505861
mean anomaly at epoch: 0.6666°
orbit number at epoch: 50465

The dashed part of the orbit path shows where the satellite is in the earth's shadow,  

DLR